Mesquite, TX

9:42 PM CDT on September 27, 2016 (GMT -0500)
Mesquite Metro

Weather History for KHQZ - January, 2013

Change the Weather History Date:

Friday, January 25, 2013

  Actual Average (KDFW) Record (KDFW)
Temperature  
Mean Temperature 52 °F 46 °F  
Max Temperature 59 °F 57 °F 84 °F (1952)
Min Temperature 44 °F 36 °F 12 °F (1940)
Degree Days  
Heating Degree Days 14 19  
Month to date heating degree days 486  
Since 1 July heating degree days 1398  
Cooling Degree Days 0 0  
Month to date cooling degree days 0  
Year to date cooling degree days 0  
Growing Degree Days 2 (Base 50)    
Moisture  
Dew Point 44 °F    
Average Humidity 81    
Maximum Humidity 100    
Minimum Humidity 66    
Precipitation  
Precipitation 0.00 in 0.07 in 3.54 in (2012)
Month to date precipitation 1.66  
Year to date precipitation 1.66  
Snow  
Snow 0.00 in 0.00 in 0.10 in (1949)
Month to date snowfall 0.1  
Since 1 July snowfall 0.4  
Snow Depth -    
Sea Level Pressure  
Sea Level Pressure 30.14 in    
Wind  
Wind Speed 8 mph (NNW)    
Max Wind Speed 16 mph    
Max Gust Speed 20 mph    
Visibility 8 miles    
Events      
T = Trace of Precipitation, MM = Missing Value Source: NWS Daily Summary

Daily Weather History Graph

Daily Weather History Graph

Search for Another Location

Airport or City:

Trip Planner

Search our weather history database for the weather conditions in past years. The results will help you decide how hot, cold, wet, or windy it might be!

Date:

Astronomy

Jan. 25, 2013 Rise Set
Actual Time 7:24 AM CST 5:52 PM CST
Civil Twilight 6:58 AM CST 6:18 PM CST
Nautical Twilight 6:28 AM CST 6:48 PM CST
Astronomical Twilight 5:59 AM CST 7:17 PM CST
Moon 4:50 PM CST (1/25) 6:04 AM CST (1/25)
Length of Visible Light 11h 20m
Length of Day
10h 27m
Waxing Gibbous, 98% of the Moon is Illuminated
Jan 25
Waxing Gibbous
Jan 26
Full
Feb 3
Last Quarter
Feb 10
New
Feb 17
First Quarter

Hourly Weather History & Observations

Time (CST) Temp. Windchill Dew Point Humidity Pressure Visibility Wind Dir Wind Speed Gust Speed Precip Events Conditions
12:15 AM 57.2 °F - 55.4 °F 94% 30.05 in 10.0 mi SE 6.9 mph - N/A   Clear
12:35 AM 59.0 °F - 55.4 °F 88% 30.04 in 10.0 mi SE 9.2 mph - N/A   Clear
12:55 AM 59.0 °F - 55.4 °F 88% 30.04 in 10.0 mi SSE 8.1 mph - N/A   Clear
1:15 AM 59.0 °F - 55.4 °F 88% 30.04 in 10.0 mi South 8.1 mph - N/A   Clear
1:35 AM 59.0 °F - 55.4 °F 88% 30.04 in 10.0 mi South 6.9 mph - N/A   Clear
1:55 AM 57.2 °F - 53.6 °F 88% 30.04 in 7.0 mi SSW 4.6 mph - N/A   Clear
2:15 AM 57.2 °F - 55.4 °F 94% 30.04 in 7.0 mi SSW 4.6 mph - N/A   Clear
2:35 AM 59.0 °F - 55.4 °F 88% 30.05 in 7.0 mi WSW 4.6 mph - N/A   Clear
3:15 AM 53.6 °F - 46.4 °F 77% 30.06 in 10.0 mi WSW 5.8 mph - N/A   Clear
3:35 AM 53.6 °F - 46.4 °F 77% 30.05 in 10.0 mi WSW 4.6 mph - N/A   Clear
3:55 AM 51.8 °F - 44.6 °F 76% 30.05 in 10.0 mi West 3.5 mph - N/A   Clear
4:15 AM 51.8 °F - 44.6 °F 76% 30.05 in 10.0 mi West 5.8 mph - N/A   Clear
4:35 AM 51.8 °F - 44.6 °F 76% 30.06 in 10.0 mi West 4.6 mph - N/A   Clear
4:55 AM 51.8 °F - 44.6 °F 76% 30.05 in 10.0 mi Calm Calm - N/A   Clear
5:15 AM 50.0 °F - 44.6 °F 82% 30.06 in 10.0 mi West 3.5 mph - N/A   Clear
5:35 AM 50.0 °F - 44.6 °F 82% 30.06 in 10.0 mi WNW 3.5 mph - N/A   Scattered Clouds
5:55 AM 50.0 °F - 44.6 °F 82% 30.06 in 7.0 mi Calm Calm - N/A   Mostly Cloudy
6:15 AM 51.8 °F - 44.6 °F 76% 30.08 in 7.0 mi NW 3.5 mph - N/A   Overcast
6:35 AM 51.8 °F - 46.4 °F 82% 30.09 in 7.0 mi NNW 5.8 mph - N/A   Overcast
6:55 AM 51.8 °F - 46.4 °F 82% 30.10 in 7.0 mi North 4.6 mph - N/A   Overcast
7:15 AM 51.8 °F - 48.2 °F 88% 30.12 in 5.0 mi NNW 6.9 mph - N/A   Overcast
7:35 AM 51.8 °F - 50.0 °F 94% 30.12 in 2.5 mi Calm Calm - N/A   Overcast
7:55 AM 50.0 °F - 48.2 °F 94% 30.15 in 1.2 mi North 16.1 mph - N/A   Overcast
8:15 AM 46.4 °F 40.1 °F 44.6 °F 93% 30.14 in 0.5 mi North 15.0 mph 19.6 mph N/A   Overcast
8:35 AM 46.4 °F 40.7 °F 44.6 °F 93% 30.15 in 0.5 mi North 12.7 mph 19.6 mph N/A   Overcast
8:55 AM 44.6 °F 38.8 °F 44.6 °F 100% 30.16 in 1.0 mi North 11.5 mph - N/A   Overcast
9:15 AM 44.6 °F 38.1 °F 42.8 °F 93% 30.17 in 1.0 mi North 13.8 mph 18.4 mph N/A   Overcast
9:35 AM 44.6 °F 38.4 °F 42.8 °F 93% 30.17 in 1.0 mi North 12.7 mph 16.1 mph N/A   Overcast
9:55 AM 44.6 °F 39.2 °F 42.8 °F 93% 30.19 in 0.8 mi North 10.4 mph - N/A   Overcast
10:15 AM 44.6 °F 39.2 °F 42.8 °F 93% 30.19 in 0.8 mi North 10.4 mph - N/A   Overcast
10:35 AM 44.6 °F 38.4 °F 44.6 °F 100% 30.20 in 3.0 mi North 12.7 mph - N/A   Overcast
10:55 AM 46.4 °F 41.1 °F 44.6 °F 93% 30.21 in 4.0 mi North 11.5 mph - N/A   Overcast
11:15 AM 46.4 °F 40.7 °F 44.6 °F 93% 30.20 in 5.0 mi North 12.7 mph 17.3 mph N/A   Overcast
11:35 AM 46.4 °F 41.1 °F 42.8 °F 87% 30.19 in 5.0 mi North 11.5 mph - N/A   Overcast
11:55 AM 46.4 °F 40.7 °F 42.8 °F 87% 30.19 in 7.0 mi North 12.7 mph 18.4 mph N/A   Overcast
12:15 PM 46.4 °F 40.7 °F 42.8 °F 87% 30.18 in 7.0 mi North 12.7 mph 17.3 mph N/A   Overcast
12:35 PM 46.4 °F 41.9 °F 42.8 °F 87% 30.18 in 7.0 mi North 9.2 mph 16.1 mph N/A   Overcast
12:55 PM 46.4 °F 41.5 °F 41.0 °F 81% 30.17 in 7.0 mi North 10.4 mph - N/A   Overcast
1:15 PM 46.4 °F 41.5 °F 41.0 °F 81% 30.16 in 10.0 mi North 10.4 mph 16.1 mph N/A   Overcast
1:35 PM 46.4 °F 40.7 °F 41.0 °F 81% 30.16 in 10.0 mi North 12.7 mph - N/A   Overcast
1:55 PM 46.4 °F 41.1 °F 41.0 °F 81% 30.16 in 10.0 mi North 11.5 mph - N/A   Overcast
2:15 PM 46.4 °F 41.5 °F 41.0 °F 81% 30.16 in 10.0 mi North 10.4 mph - N/A   Overcast
2:35 PM 48.2 °F - 41.0 °F 76% 30.16 in 10.0 mi North 9.2 mph - N/A   Overcast
2:55 PM 48.2 °F - 41.0 °F 76% 30.15 in 10.0 mi NNW 9.2 mph - N/A   Overcast
3:15 PM 50.0 °F - 41.0 °F 71% 30.15 in 10.0 mi North 9.2 mph - N/A   Overcast
3:35 PM 50.0 °F - 41.0 °F 71% 30.15 in 10.0 mi North 8.1 mph - N/A   Overcast
3:55 PM 50.0 °F - 41.0 °F 71% 30.16 in 10.0 mi North 8.1 mph - N/A   Overcast
4:15 PM 50.0 °F - 41.0 °F 71% 30.16 in 10.0 mi North 6.9 mph - N/A   Overcast
4:35 PM 50.0 °F - 41.0 °F 71% 30.16 in 10.0 mi North 6.9 mph - N/A   Overcast
4:55 PM 50.0 °F - 41.0 °F 71% 30.16 in 10.0 mi North 9.2 mph - N/A   Overcast
5:15 PM 50.0 °F - 41.0 °F 71% 30.17 in 10.0 mi North 10.4 mph - N/A   Overcast
5:35 PM 50.0 °F - 41.0 °F 71% 30.16 in 10.0 mi North 9.2 mph - N/A   Overcast
5:55 PM 50.0 °F - 41.0 °F 71% 30.17 in 10.0 mi North 9.2 mph - N/A   Overcast
6:15 PM 48.2 °F - 41.0 °F 76% 30.17 in 10.0 mi North 5.8 mph - N/A   Overcast
6:35 PM 50.0 °F - 41.0 °F 71% 30.17 in 10.0 mi NNE 4.6 mph - N/A   Overcast
6:55 PM 50.0 °F - 41.0 °F 71% 30.17 in 10.0 mi North 4.6 mph - N/A   Overcast
7:15 PM 50.0 °F - 41.0 °F 71% 30.16 in 10.0 mi North 6.9 mph - N/A   Overcast
7:35 PM 50.0 °F - 41.0 °F 71% 30.16 in 10.0 mi North 5.8 mph - N/A   Overcast
8:15 PM 50.0 °F - 39.2 °F 66% 30.17 in 10.0 mi North 8.1 mph - N/A   Overcast
8:35 PM 48.2 °F - 39.2 °F 71% 30.17 in 10.0 mi North 6.9 mph - N/A   Overcast
9:15 PM 46.4 °F 41.9 °F 39.2 °F 76% 30.17 in 10.0 mi North 9.2 mph - N/A   Overcast
9:35 PM 46.4 °F 42.4 °F 37.4 °F 71% 30.17 in 10.0 mi North 8.1 mph - N/A   Overcast
10:15 PM 46.4 °F 42.4 °F 37.4 °F 71% 30.19 in 10.0 mi North 8.1 mph - N/A   Overcast
10:35 PM 46.4 °F 43.5 °F 37.4 °F 71% 30.18 in 10.0 mi North 5.8 mph - N/A   Overcast
10:55 PM 46.4 °F 42.4 °F 37.4 °F 71% 30.19 in 10.0 mi North 8.1 mph - N/A   Overcast
11:15 PM 46.4 °F 43.5 °F 37.4 °F 71% 30.19 in 10.0 mi North 5.8 mph - N/A   Overcast
11:35 PM 46.4 °F 43.5 °F 37.4 °F 71% 30.19 in 10.0 mi North 5.8 mph - N/A   Overcast
11:55 PM 46.4 °F 43.5 °F 37.4 °F 71% 30.20 in 10.0 mi NNW 5.8 mph - N/A   Overcast